www.pogodaiklimat.ru

Погода и климат >> Архив погоды >> Индия >> Guna


ПОГОДА в Guna

  • Прогноз погоды в Guna
  • Монитор погоды в Guna
  • Климат города

АРХИВ ПОГОДЫ в Guna

Время (UTC), дата Ветер
(напр.,м/с)
 
Видим.   Явления Облачность Т
(С)
Тd
(С)
f
(%)
Тe
(С)
Тes
(С)
Комфортность P
(гПа)
Po
(гПа)
Тmin
(С)
Tmax
(С)
R
(мм)
R24
(мм)
S
(см)
00 10.07 З 2 4000 м 5/0
[Ac trans Ci sp]
+26.4 +23.5 84 +36 +36 очень
душно
996.5 997.0
03 10.07 ЮЗ 1 4000 м 4/0
[Ci sp]
+29.0 +23.8 74 +40 +49 очень
душно
997.2 997.0 +35.5
06 10.07 штиль 0 4000 м ясно +34.8 +24.0 54 +47 +75 опасность
перегрева
995.7 996.0
09 10.07 штиль 0 4000 м 9/8 750 м
[Sc diur, vesp Ac trans]
+37.2 +21.8 41 +45 +48 опасность
перегрева
992.3 992.0
12 10.07 штиль 0 4000 м в посл. час дождь со снегом {гроза} 10/4 900 м
[Sc As op]
+25.2 +24.3 95 +35 +35 очень
душно
994.3 994.0 +38.5 32
15 10.07 штиль 0 4000 м 5/3 600 м
[Sc As op]
+26.8 +25.4 92 +39 +39 очень
душно
995.6 996.0 32
18 10.07 З 1 4000 м 10/4 600 м
[Sc As op]
+26.4 +24.4 89 +37 +37 очень
душно
997.8 998.0 32
21 10.07 штиль 0 4000 м 10/6 900 м
[Sc Ac trans]
+25.4 +23.9 91 +35 +35 очень
душно
996.2 996.0 32
00 11.07 З 1 4000 м 9/1 600 м
[Sc Ac trans Ci sp]
+25.6 +23.9 90 +35 +35 очень
душно
996.5 997.0 32
03 11.07 штиль 0 4000 м 9/5 600 м
[Sc As op]
+27.4 +24.8 86 +39 +41 очень
душно
997.7 998.0 +24.7 32
06 11.07 штиль 0 2000 м слабый дождь {гроза} 10/5 750 м
[Cb cap As op]
+26.0 +25.1 95 +37 +40 очень
душно
998.6 999.0 17
09 11.07 штиль 0 4000 м в посл. час дождь {гроза} 10/4 900 м
[Sc Ac trans Ci sp]
+27.0 +25.9 94 +40 +47 очень
душно
995.5 996.0 68
12 11.07 штиль 0 4000 м 10/5 900 м
[Sc As op]
+28.4 +27.0 92 +45 +45 опасность
перегрева
993.8 994.0 +28.6 68
15 11.07 штиль 0 4000 м 10/5 900 м
[Sc As op]
+26.0 +24.3 90 +36 +36 очень
душно
996.4 996.0 68
18 11.07 штиль 0 4000 м 10/5 900 м
[Sc As op]
+26.0 +24.6 92 +37 +37 очень
душно
997.0 997.0 68
21 11.07 штиль 0 4000 м 9/5 900 м
[Sc As op]
+25.0 +23.5 91 +34 +34 очень
душно
995.3 995.0 68
00 12.07 З 1 4000 м 10/5 600 м
[Sc As op]
+25.6 +24.7 95 +36 +36 очень
душно
995.5 996.0 68
03 12.07 З 1 4000 м 10/5 600 м
[Sc As op]
+26.6 +25.5 94 +39 +40 очень
душно
996.6 997.0 +24.6 68
06 12.07 штиль 0 4000 м в посл. час морось 10/4 900 м
[Sc As op]
+25.4 +24.5 95 +36 +39 очень
душно
997.2 997.0 0.5
09 12.07 З 1 4000 м в посл. час морось {гроза, дождь} 10/5 900 м
[Sc As op]
+25.4 +24.8 96 +36 +38 очень
душно
996.0 996.0 6
12 12.07 З 1 4000 м 10/5 540 м
[St As op]
+25.0 +23.5 91 +34 +34 очень
душно
996.4 996.0 +27.7 6
15 12.07 ЮЗ 1 4000 м 10/5 600 м
[Sc As op]
+25.0 +24.1 95 +34 +34 очень
душно
996.4 996.0 6
18 12.07 З 1 4000 м 10/5 540 м
[Sc As op]
+25.0 +24.1 95 +34 +34 очень
душно
997.5 998.0
21 12.07 штиль 0 2000 м мгла 10/5 600 м
[Sc As op]
+25.0 +24.1 95 +34 +34 очень
душно
996.1 996.0 6
00 13.07 штиль 0 4000 м в посл. час дождь 10/5 540 м
[Sc As op]
+25.0 +24.4 96 +35 +35 очень
душно
996.4 996.0 6
03 13.07 ЮЗ 1 4000 м 10/5 540 м
[Sc As op]
+26.4 +25.0 92 +38 +39 очень
душно
997.1 997.0 +24.4 6
06 13.07 штиль 0 4000 м 10/6 900 м
[Sc As op]
+27.0 +24.7 87 +38 +41 очень
душно
997.7 998.0
09 13.07 З 1 4000 м в посл. час морось {дождь} 10/5 540 м
[Sc As op]
+27.4 +25.7 90 +40 +42 очень
душно
996.1 996.0 0.3
12 13.07 штиль 0 4000 м 10/5 600 м
[Sc As op]
+28.5 +25.2 82 +41 +42 опасность
перегрева
993.4 993.0 +29.2 0.3
15 13.07 штиль 0 4000 м 10/5 600 м
[Sc As op]
+26.2 +23.9 87 +36 +36 очень
душно
996.0 996.0 0.3
18 13.07 штиль 0 4000 м 10/5 600 м
[Sc As op]
+25.8 +24.6 93 +36 +36 очень
душно
996.9 997.0 0.3
21 13.07 штиль 0 4000 м 10/6 600 м
[Sc As op]
+25.8 +24.6 93 +36 +36 очень
душно
996.3 996.0 0.3
00 14.07 штиль 0 4000 м в посл. час дождь 10/5 540 м
[Sc As op]
+24.8 +23.9 95 +34 +34 очень
душно
996.5 997.0 0.7
03 14.07 штиль 0 4000 м 8/4 600 м
[Sc Ac trans]
+26.6 +24.6 89 +38 +42 очень
душно
996.5 997.0 +24.2 0.7
06 14.07 ЮЗ 2 4000 м 8/3 900 м
[Sc Ac trans Ci fib]
+29.6 +24.5 74 +42 +52 опасность
перегрева
996.3 996.0
09 14.07 штиль 0 4000 м в посл. час дождь 10/5 600 м
[Sc As op]
+27.0 +25.6 92 +40 +42 очень
душно
994.4 994.0 1
12 14.07 штиль 0 4000 м 10/5 600 м
[Sc As op]
+28.6 +25.2 82 +42 +42 опасность
перегрева
993.4 993.0 +30.5 1
15 14.07 штиль 0 4000 м в посл. час дождь 10/5 600 м
[Sc As op]
+27.4 +25.7 90 +40 +40 очень
душно
994.6 995.0 2
18 14.07 штиль 0 4000 м 10/5 600 м
[Sc As op]
+26.6 +25.5 94 +39 +39 очень
душно
995.2 995.0 2
21 14.07 штиль 0 4000 м 10/5 600 м
[Sc As op]
+26.0 +25.1 95 +37 +37 очень
душно
994.8 995.0 2
00 15.07 штиль 0 4000 м 10/5 600 м
[Sc As op]
+25.8 +24.9 95 +37 +37 очень
душно
995.0 995.0 2
03 15.07 штиль 0 4000 м 10/5 600 м
[Sc As op]
+26.6 +25.2 92 +38 +40 очень
душно
996.1 996.0 +25.2 2
06 15.07 В 2 4000 м 8/5 750 м
[Sc diur, vesp Ac trans]
+30.8 +24.5 69 +43 +51 опасность
перегрева
995.2 995.0
09 15.07 З 2 4000 м 8/5 600 м
[Sc Ac trans]
+33.0 +24.7 62 +28 +34 жарко 992.8 993.0
12 15.07 З 1 4000 м в посл. час дождь со снегом {гроза} 8/3 750 м
[Sc diur, vesp Ac trans Ci sp]
+31.0 +25.4 72 +45 +47 опасность
перегрева
992.2 992.0 +33.8 0.2
15 15.07 штиль 0 4000 м 8/4 750 м
[Sc Ac trans]
+29.0 +26.2 85 +44 +44 опасность
перегрева
993.5 994.0 0.2
18 15.07 штиль 0 4000 м 6/3 750 м
[Sc Ac trans]
+28.2 +26.5 91 +44 +44 опасность
перегрева
995.2 995.0 0.2
21 15.07 штиль 0 4000 м 8/4 750 м
[Sc Ac trans]
+26.4 +25.0 92 +38 +38 очень
душно
994.7 995.0 0.2
00 16.07 штиль 0 4000 м 8/3 600 м
[Sc Ac trans Ci sp]
+26.0 +24.6 92 +37 +37 очень
душно
994.8 995.0 0.2
03 16.07 штиль 0 4000 м 8/4 600 м
[Sc Ac trans Ci sp]
+27.0 +25.6 92 +40 +44 очень
душно
995.6 996.0 +25.0 0.2
06 16.07 штиль 0 4000 м 4/4 750 м
[Sc diur, vesp]
+32.8 +25.5 66 +48 +65 опасность
перегрева
994.7 995.0
09 16.07 штиль 0 4000 м 8/5 750 м
[Sc diur, vesp Ac trans]
+33.6 +24.9 60 +47 +54 опасность
перегрева
992.3 992.0
12 16.07 штиль 0 4000 м {дождь, морось} 8/5 750 м
[Sc Ac trans]
+29.6 +26.5 83 +45 +46 опасность
перегрева
991.8 992.0 +35.4 5
15 16.07 штиль 0 4000 м 8/5 750 м
[Sc Ac trans]
+28.6 +26.9 91 +45 +45 опасность
перегрева
994.4 994.0 5
18 16.07 штиль 0 4000 м 8/4 750 м
[Sc Ac trans]
+26.0 +24.6 92 +37 +37 очень
душно
996.3 996.0 5
21 16.07 Ю 1 4000 м {морось} 8/4 750 м
[Sc As trans]
+26.0 +25.1 95 +37 +37 очень
душно
995.3 995.0 5

 

Местоположение метеостанции Guna (Madhya Pradesh, Индия): широта 24.65 долгота 77.32 высота над уровнем моря 478 м.

В архиве по умолчанию представлена погода в Guna за последнюю неделю. Архивные данные за месяц целиком и за предыдущие месяцы, начиная с января 2011 года, Вы можете получить, выбрав интересующий диапазон дат из раскрывающегося списка и нажав кнопку "Ввод!".


*Определитесь, кто Вы:
робот инопланетянин человек

Внимание! Время в таблицах - всемирное. Для получения местного времени необходимо прибавить поправку, которая в Guna равна 5.5 ч.

Смотрите также архив погоды в соседних городах и на ближайших метеорологических станциях:

Погода в Shivpuri (Madhya Pradesh, Индия) (83 км)
Погода в Rajgarh (Madhya Pradesh, Индия) (94 км)
Погода в Sheopur (Madhya Pradesh, Индия) (130 км)
Погода в Bhopal (Madhya Pradesh, Индия) (152 км)
Погода в Tikamgarh (Madhya Pradesh, Индия) (153 км)
Погода в Raisen (Madhya Pradesh, Индия) (157 км)
Погода в Jhansi (Uttar Pradesh, Индия) (158 км)
Погода в Kota (Rajasthan, Индия) (158 км)
Погода в Shajapur (Madhya Pradesh, Индия) (170 км)
Погода в Sagar (Madhya Pradesh, Индия) (170 км)

Пояснения к столбцам:

Ветер - указаны скорость ветра в м/с - средняя за 10 мин, порывы в срок и между сроками (в фигурных скобках) и направление, откуда дует ветер: С - северный, СВ - северо-восточный, В - восточный, ЮВ - юго-восточный, Ю - южный, ЮЗ - юго-западный, З - западный, СЗ - северо-западный.
Видимость - горизонтальная дальность видимости в метрах или километрах. При видимости от 1 до 10 км при отсутствии осадков обычно наблюдается дымка, при ухудшении видимости до 1 км и менее - туман. В сухую погоду видимость может ухудшаться дымом, пылью или мглою.
Явления - указаны атмосферные явления, наблюдавшиеся в срок или в последний час перед сроком; фигурными скобками обозначены явления, наблюдавшиеся между сроками (за 1-3 часа до срока); квадратными скобками обозначены град или гололедные отложения с указанием их диаметра в мм.
Облачность - указаны через наклонную черту общая и нижняя облачность в баллах и высота нижней границы облаков в метрах; квадратными скобками обозначены формы облаков: Ci - перистые, Cs - перисто-слоистые, Cc - перисто-кучевые, Ac - высококучевые, As - высокослоистые, Sc - слоисто-кучевые, Ns - слоисто-дождевые, Cu - кучевые, Cb - кучево-дождевые. Подробнее классификацию облаков см. в Атласе облаков (PDF).
T - Температура воздуха - температура, измеренная на высоте 2 м над землей.
Td - Температура точки росы - температура, при понижении до которой содержащийся в воздухе водяной пар достигнет насыщения.
f - Относительная влажность воздуха - влажноcть воздуха, измеренная на высоте 2 м над землей.
Te - Эффективная температура - температура, которую ощущает одетый по сезону человек в тени. Характеристика душности погоды. При расчете учитывается влияние влажности воздуха и скорости ветра на теплоощущения человека.
Tes - Эффективная температура на солнце - температура, которую ощущает человек, с поправкой на солнечный нагрев. Характеристика знойности погоды. Зависит от высоты солнца над горизонтом, облачности и скорости ветра. Ночью, в пасмурную погоду, а также при ветре 12 м/с и более поправка равна нулю.
P - Атмосферное давление - приведенное к уровню моря атмосферное давление.
Po - Атмосферное давление - измеренное на уровне метеостанции атмосферное давление.
Tmin - Минимальная температура - минимум температуры воздуха на высоте 2 м над землей.
Tmax - Максимальная температура - максимум температуры воздуха на высоте 2 м над землей.
R - Количество осадков - Количество выпавших осадков за период времени, мм. При наведении курсора мыши на число - период времени, за который выпало указанное количество осадков.
R24 - Количество осадков - Количество выпавших осадков за 24 часа, мм.
S - Снежный покров - Высота снежного покрова, см. При наведении курсора мыши на число - состояние снежного покрова и степень покрытия местности в баллах.